GIA3421 WAAA-WARR

Flight info

Callsign GIA3421
Flight time 1h 12m
Altitude 36000
Route ENDOG W32 SUSIL W32N KOLTA
Aircraft A339/H-SADE1E2E3GHIJ3J5M1P2RWXY/LB2D1

Departure

Time 2026-05-07 04:07
Airport Sultan Hasanuddin International Airport (WAAA)

Arrival

Time 2026-05-07 05:19
Airport Juanda International Airport (WARR)
Time Latitude Longitude Altitude Speed Heading
2026-05-07 04:07 -4.95268 119.32446 8752 ft 309 kts 271°
2026-05-07 04:07 -4.95214 119.30285 9204 ft 311 kts 272°
2026-05-07 04:07 -4.95153 119.28111 9675 ft 310 kts 272°
2026-05-07 04:07 -4.95097 119.25956 10154 ft 310 kts 272°
2026-05-07 04:08 -4.95044 119.23770 10611 ft 317 kts 272°
2026-05-07 04:08 -4.94986 119.21532 11068 ft 324 kts 272°
2026-05-07 04:08 -4.94927 119.19253 11546 ft 330 kts 272°
2026-05-07 04:08 -4.94864 119.16937 12024 ft 335 kts 272°
2026-05-07 04:09 -4.94804 119.14582 12428 ft 343 kts 272°
2026-05-07 04:09 -4.94744 119.12132 12590 ft 358 kts 272°
2026-05-07 04:09 -4.94684 119.09646 12989 ft 364 kts 272°
2026-05-07 04:09 -4.94624 119.07099 13495 ft 366 kts 272°
2026-05-07 04:10 -4.94558 119.04535 13801 ft 369 kts 271°
2026-05-07 04:10 -4.94492 119.01966 13884 ft 368 kts 272°
2026-05-07 04:10 -4.94426 118.99403 13886 ft 368 kts 272°
2026-05-07 04:10 -4.94362 118.96824 13887 ft 368 kts 272°
2026-05-07 04:11 -4.94297 118.94257 13889 ft 368 kts 272°
2026-05-07 04:11 -4.94230 118.91691 13889 ft 368 kts 272°
2026-05-07 04:11 -4.94159 118.89130 13895 ft 367 kts 272°
2026-05-07 04:11 -4.94093 118.86571 13888 ft 367 kts 272°
2026-05-07 04:12 -4.94029 118.84007 13888 ft 368 kts 272°
2026-05-07 04:12 -4.93964 118.81440 13888 ft 368 kts 272°
2026-05-07 04:12 -4.93901 118.78899 13887 ft 369 kts 272°
2026-05-07 04:12 -4.93905 118.76327 13871 ft 371 kts 265°
2026-05-07 04:13 -4.94562 118.73823 14287 ft 373 kts 247°
2026-05-07 04:13 -4.95905 118.71602 14838 ft 373 kts 231°
2026-05-07 04:13 -4.97545 118.69570 15302 ft 376 kts 231°
2026-05-07 04:13 -4.99196 118.67520 15763 ft 378 kts 231°
2026-05-07 04:14 -5.00848 118.65461 16225 ft 380 kts 231°
2026-05-07 04:14 -5.02502 118.63384 16659 ft 383 kts 231°
2026-05-07 04:14 -5.04166 118.61290 17120 ft 384 kts 231°
2026-05-07 04:14 -5.05834 118.59188 17536 ft 387 kts 231°
2026-05-07 04:15 -5.07512 118.57073 17958 ft 389 kts 231°
2026-05-07 04:15 -5.09200 118.54946 18378 ft 391 kts 231°
2026-05-07 04:15 -5.10874 118.52836 18782 ft 393 kts 231°
2026-05-07 04:15 -5.12580 118.50686 19178 ft 395 kts 231°
2026-05-07 04:16 -5.14301 118.48518 19565 ft 398 kts 231°
2026-05-07 04:16 -5.16030 118.46337 19955 ft 401 kts 231°
2026-05-07 04:16 -5.17771 118.44142 20339 ft 403 kts 231°
2026-05-07 04:16 -5.19528 118.41929 20716 ft 406 kts 231°
2026-05-07 04:17 -5.21290 118.39711 21094 ft 408 kts 231°
2026-05-07 04:17 -5.23144 118.37537 21447 ft 411 kts 227°
2026-05-07 04:17 -5.25173 118.35505 21812 ft 414 kts 223°
2026-05-07 04:17 -5.27366 118.33619 22169 ft 416 kts 218°
2026-05-07 04:18 -5.29692 118.31878 22520 ft 418 kts 216°
2026-05-07 04:18 -5.32047 118.30141 22865 ft 421 kts 217°
2026-05-07 04:18 -5.34405 118.28387 23213 ft 424 kts 217°
2026-05-07 04:18 -5.36780 118.26616 23567 ft 426 kts 217°
2026-05-07 04:19 -5.39165 118.24839 23892 ft 428 kts 217°
2026-05-07 04:19 -5.41567 118.23048 24229 ft 431 kts 217°
2026-05-07 04:19 -5.43976 118.21248 24565 ft 433 kts 217°
2026-05-07 04:19 -5.46397 118.19443 24918 ft 434 kts 217°
2026-05-07 04:20 -5.48825 118.17636 25263 ft 435 kts 217°
2026-05-07 04:20 -5.51259 118.15818 25615 ft 437 kts 217°
2026-05-07 04:20 -5.53540 118.13794 25967 ft 437 kts 225°
2026-05-07 04:21 -5.57123 118.08899 26583 ft 442 kts 241°
2026-05-07 04:21 -5.58395 118.06084 26897 ft 444 kts 249°
2026-05-07 04:21 -5.59385 118.03136 27180 ft 445 kts 251°
2026-05-07 04:21 -5.60377 118.00184 27473 ft 447 kts 250°
2026-05-07 04:22 -5.61385 117.97225 27762 ft 449 kts 250°
2026-05-07 04:22 -5.62402 117.94257 28044 ft 450 kts 250°
2026-05-07 04:22 -5.63422 117.91275 28307 ft 452 kts 250°
2026-05-07 04:22 -5.64446 117.88282 28600 ft 453 kts 250°
2026-05-07 04:23 -5.65472 117.85286 28870 ft 455 kts 250°
2026-05-07 04:23 -5.66502 117.82278 29155 ft 456 kts 250°
2026-05-07 04:23 -5.67536 117.79252 29423 ft 458 kts 250°
2026-05-07 04:23 -5.68569 117.76226 29684 ft 460 kts 249°
2026-05-07 04:24 -5.69594 117.73221 29954 ft 461 kts 250°
2026-05-07 04:24 -5.70634 117.70170 30232 ft 463 kts 249°
2026-05-07 04:24 -5.71680 117.67109 30501 ft 464 kts 249°
2026-05-07 04:24 -5.72730 117.64035 30775 ft 466 kts 249°
2026-05-07 04:25 -5.73784 117.60948 31076 ft 468 kts 250°
2026-05-07 04:25 -5.74841 117.57848 31319 ft 470 kts 250°
2026-05-07 04:25 -5.75904 117.54735 31582 ft 472 kts 249°
2026-05-07 04:25 -5.76970 117.51611 31848 ft 474 kts 250°
2026-05-07 04:26 -5.78040 117.48476 32108 ft 475 kts 250°
2026-05-07 04:26 -5.79113 117.45326 32326 ft 477 kts 250°
2026-05-07 04:26 -5.80189 117.42170 32539 ft 478 kts 250°
2026-05-07 04:26 -5.81269 117.39003 32699 ft 480 kts 250°
2026-05-07 04:27 -5.82353 117.35818 32867 ft 481 kts 250°
2026-05-07 04:27 -5.83432 117.32636 33012 ft 482 kts 250°
2026-05-07 04:27 -5.84501 117.29487 33138 ft 483 kts 250°
2026-05-07 04:27 -5.85593 117.26288 33249 ft 484 kts 250°
2026-05-07 04:28 -5.86687 117.23085 33355 ft 485 kts 250°
2026-05-07 04:28 -5.87785 117.19866 33498 ft 485 kts 250°
2026-05-07 04:28 -5.88878 117.16663 33638 ft 485 kts 250°
2026-05-07 04:28 -5.89973 117.13457 33757 ft 485 kts 250°
2026-05-07 04:29 -5.91072 117.10245 33902 ft 485 kts 250°
2026-05-07 04:29 -5.92169 117.07039 34036 ft 485 kts 250°
2026-05-07 04:29 -5.93265 117.03842 34194 ft 484 kts 250°
2026-05-07 04:29 -5.94360 117.00641 34343 ft 484 kts 250°
2026-05-07 04:30 -5.95452 116.97444 34490 ft 484 kts 250°
2026-05-07 04:30 -5.96543 116.94247 34647 ft 483 kts 250°
2026-05-07 04:30 -5.97634 116.91053 34765 ft 483 kts 250°
2026-05-07 04:30 -5.98711 116.87902 34902 ft 483 kts 250°
2026-05-07 04:31 -5.99800 116.84710 35054 ft 483 kts 250°
2026-05-07 04:31 -6.00887 116.81522 35236 ft 481 kts 250°
2026-05-07 04:31 -6.01969 116.78351 35488 ft 478 kts 250°
2026-05-07 04:31 -6.03047 116.75187 35656 ft 478 kts 250°
2026-05-07 04:32 -6.04123 116.72025 35801 ft 478 kts 250°
2026-05-07 04:32 -6.05196 116.68868 35880 ft 478 kts 250°
2026-05-07 04:32 -6.07351 116.62556 35879 ft 477 kts 250°
2026-05-07 04:33 -6.09504 116.56253 35882 ft 477 kts 250°
2026-05-07 04:33 -6.11657 116.49931 35884 ft 478 kts 250°
2026-05-07 04:34 -6.13809 116.43595 35883 ft 478 kts 250°
2026-05-07 04:34 -6.15947 116.37309 35860 ft 479 kts 250°
2026-05-07 04:35 -6.18101 116.30980 35865 ft 479 kts 250°
2026-05-07 04:35 -6.20273 116.24639 35891 ft 479 kts 250°
2026-05-07 04:36 -6.22444 116.18300 35888 ft 479 kts 250°
2026-05-07 04:36 -6.24614 116.11963 35887 ft 479 kts 250°
2026-05-07 04:37 -6.26780 116.05628 35889 ft 479 kts 250°
2026-05-07 04:37 -6.28931 115.99330 35885 ft 479 kts 250°
2026-05-07 04:38 -6.31096 115.92993 35888 ft 479 kts 250°
2026-05-07 04:38 -6.33259 115.86650 35888 ft 479 kts 250°
2026-05-07 04:39 -6.35425 115.80314 35900 ft 479 kts 250°
2026-05-07 04:39 -6.37585 115.73981 35900 ft 478 kts 250°
2026-05-07 04:40 -6.39742 115.67657 35900 ft 478 kts 250°
2026-05-07 04:40 -6.41898 115.61330 35899 ft 478 kts 250°
2026-05-07 04:41 -6.44055 115.55005 35898 ft 478 kts 250°
2026-05-07 04:41 -6.46191 115.48726 35900 ft 477 kts 250°
2026-05-07 04:42 -6.48339 115.42411 35897 ft 477 kts 250°
2026-05-07 04:42 -6.50489 115.36097 35898 ft 477 kts 250°
2026-05-07 04:43 -6.52637 115.29786 35899 ft 477 kts 250°
2026-05-07 04:43 -6.54779 115.23479 35896 ft 476 kts 250°
2026-05-07 04:44 -6.56230 115.16985 35894 ft 477 kts 262°
2026-05-07 04:44 -6.56319 115.10306 35888 ft 479 kts 274°
2026-05-07 04:45 -6.55779 115.03632 35886 ft 479 kts 273°
2026-05-07 04:45 -6.55272 114.96992 35889 ft 479 kts 273°
2026-05-07 04:46 -6.54769 114.90303 35888 ft 479 kts 273°
2026-05-07 04:46 -6.54258 114.83624 35888 ft 479 kts 273°
2026-05-07 04:47 -6.53752 114.76941 35888 ft 479 kts 273°
2026-05-07 04:47 -6.53245 114.70297 35881 ft 479 kts 273°
2026-05-07 04:48 -6.52739 114.63612 35872 ft 479 kts 273°
2026-05-07 04:48 -6.52224 114.56931 35858 ft 479 kts 273°
2026-05-07 04:49 -6.51706 114.50248 35865 ft 479 kts 273°
2026-05-07 04:49 -6.51191 114.43567 35880 ft 479 kts 273°
2026-05-07 04:50 -6.50674 114.36875 35863 ft 479 kts 273°
2026-05-07 04:50 -6.50161 114.30230 35880 ft 479 kts 273°
2026-05-07 04:51 -6.49644 114.23546 35879 ft 479 kts 274°
2026-05-07 04:51 -6.49126 114.16858 35868 ft 479 kts 274°
2026-05-07 04:52 -6.48609 114.10172 35880 ft 479 kts 274°
2026-05-07 04:52 -6.48176 114.04621 35879 ft 480 kts 274°
2026-05-07 04:53 -6.47653 113.97930 35883 ft 479 kts 274°
2026-05-07 04:53 -6.47131 113.91247 35881 ft 479 kts 274°
2026-05-07 04:54 -6.46794 113.84550 35880 ft 479 kts 267°
2026-05-07 04:54 -6.47547 113.77957 35873 ft 477 kts 257°
2026-05-07 04:55 -6.49051 113.71451 35881 ft 477 kts 256°
2026-05-07 04:55 -6.50526 113.64950 35724 ft 475 kts 256°
2026-05-07 04:56 -6.51258 113.61710 35077 ft 476 kts 256°
2026-05-07 04:56 -6.51996 113.58446 34100 ft 480 kts 256°
2026-05-07 04:56 -6.52745 113.55140 32822 ft 487 kts 256°
2026-05-07 04:56 -6.53502 113.51790 31281 ft 495 kts 256°
2026-05-07 04:57 -6.54266 113.48398 29740 ft 500 kts 256°
2026-05-07 04:57 -6.55034 113.44999 28597 ft 496 kts 256°
2026-05-07 04:57 -6.55798 113.41629 27731 ft 491 kts 256°
2026-05-07 04:57 -6.56551 113.38301 27159 ft 482 kts 256°
2026-05-07 04:58 -6.57286 113.35051 26830 ft 469 kts 256°
2026-05-07 04:58 -6.57989 113.31938 26546 ft 456 kts 256°
2026-05-07 04:58 -6.58688 113.28846 25842 ft 453 kts 256°
2026-05-07 04:58 -6.59382 113.25775 25289 ft 447 kts 256°
2026-05-07 04:59 -6.60066 113.22742 24671 ft 442 kts 256°
2026-05-07 04:59 -6.60747 113.19736 24061 ft 438 kts 256°
2026-05-07 04:59 -6.61419 113.16764 23450 ft 434 kts 257°
2026-05-07 04:59 -6.62081 113.13823 22850 ft 429 kts 257°
2026-05-07 05:00 -6.62736 113.10916 22252 ft 423 kts 257°
2026-05-07 05:00 -6.63383 113.08048 21658 ft 418 kts 257°
2026-05-07 05:00 -6.64021 113.05213 21064 ft 413 kts 257°
2026-05-07 05:00 -6.64644 113.02451 20491 ft 407 kts 257°
2026-05-07 05:01 -6.65268 112.99691 19910 ft 402 kts 257°
2026-05-07 05:01 -6.65882 112.96973 19334 ft 396 kts 257°
2026-05-07 05:01 -6.66488 112.94286 18771 ft 390 kts 257°
2026-05-07 05:01 -6.67083 112.91642 18211 ft 385 kts 257°
2026-05-07 05:02 -6.67672 112.89035 17641 ft 380 kts 257°
2026-05-07 05:02 -6.68253 112.86462 17099 ft 374 kts 257°
2026-05-07 05:02 -6.68826 112.83924 16547 ft 369 kts 257°
2026-05-07 05:02 -6.69391 112.81418 16006 ft 367 kts 257°
2026-05-07 05:03 -6.69977 112.78815 15438 ft 394 kts 257°
2026-05-07 05:03 -6.70593 112.76077 14837 ft 405 kts 257°
2026-05-07 05:03 -6.71212 112.73313 14248 ft 405 kts 257°
2026-05-07 05:03 -6.71831 112.70558 13637 ft 400 kts 257°
2026-05-07 05:04 -6.72430 112.67894 13049 ft 391 kts 257°
2026-05-07 05:04 -6.73015 112.65284 12791 ft 374 kts 257°
2026-05-07 05:04 -6.73573 112.62799 12629 ft 354 kts 257°
2026-05-07 05:04 -6.74099 112.60446 12480 ft 336 kts 257°
2026-05-07 05:05 -6.74600 112.58206 12326 ft 319 kts 257°
2026-05-07 05:05 -6.75074 112.56087 12147 ft 301 kts 257°
2026-05-07 05:05 -6.75524 112.54075 11648 ft 292 kts 257°
2026-05-07 05:05 -6.75963 112.52112 11320 ft 281 kts 257°
2026-05-07 05:06 -6.76423 112.50198 11055 ft 286 kts 251°
2026-05-07 05:06 -6.77425 112.48478 10810 ft 287 kts 226°
2026-05-07 05:06 -6.79027 112.47327 10585 ft 281 kts 201°
2026-05-07 05:06 -6.80887 112.46970 10377 ft 276 kts 176°
2026-05-07 05:07 -6.82775 112.47309 10143 ft 276 kts 162°
2026-05-07 05:07 -6.84622 112.47838 9900 ft 275 kts 162°
2026-05-07 05:07 -6.86467 112.48298 9573 ft 270 kts 166°
2026-05-07 05:07 -6.88284 112.48641 9248 ft 261 kts 168°
2026-05-07 05:08 -6.90058 112.48900 8916 ft 254 kts 170°
2026-05-07 05:08 -6.91801 112.49112 8606 ft 259 kts 171°
2026-05-07 05:08 -6.93681 112.49329 8265 ft 281 kts 171°
2026-05-07 05:08 -6.95619 112.49548 8170 ft 276 kts 171°
2026-05-07 05:09 -6.97482 112.49757 7907 ft 270 kts 171°
2026-05-07 05:09 -6.99347 112.49968 7418 ft 268 kts 171°
2026-05-07 05:09 -7.01174 112.50170 7087 ft 258 kts 171°
2026-05-07 05:09 -7.02960 112.50369 6859 ft 260 kts 171°
2026-05-07 05:10 -7.04756 112.50574 6628 ft 260 kts 171°
2026-05-07 05:10 -7.06547 112.50769 6403 ft 258 kts 171°
2026-05-07 05:10 -7.08332 112.50965 6178 ft 257 kts 172°
2026-05-07 05:10 -7.10099 112.51161 5947 ft 255 kts 172°
2026-05-07 05:11 -7.11869 112.51360 5727 ft 256 kts 171°
2026-05-07 05:11 -7.13630 112.51563 5500 ft 254 kts 172°
2026-05-07 05:11 -7.15382 112.51764 5291 ft 253 kts 171°
2026-05-07 05:11 -7.17125 112.51960 5067 ft 252 kts 172°
2026-05-07 05:12 -7.18871 112.52158 4841 ft 252 kts 172°
2026-05-07 05:12 -7.20583 112.52354 4618 ft 250 kts 172°
2026-05-07 05:12 -7.22315 112.52558 4408 ft 250 kts 172°
2026-05-07 05:12 -7.24031 112.52760 4195 ft 248 kts 172°
2026-05-07 05:13 -7.25749 112.52957 3975 ft 248 kts 172°
2026-05-07 05:13 -7.27468 112.53144 3775 ft 248 kts 173°
2026-05-07 05:13 -7.29179 112.53331 3553 ft 246 kts 172°
2026-05-07 05:13 -7.30850 112.53522 3504 ft 235 kts 172°
2026-05-07 05:14 -7.32422 112.53716 3502 ft 227 kts 168°
2026-05-07 05:14 -7.33928 112.54243 3419 ft 233 kts 165°
2026-05-07 05:14 -7.35166 112.55222 3502 ft 225 kts 123°
2026-05-07 05:14 -7.35611 112.56698 3517 ft 225 kts 89°
2026-05-07 05:15 -7.35439 112.58273 3503 ft 226 kts 82°
2026-05-07 05:15 -7.35231 112.59809 3427 ft 216 kts 85°
2026-05-07 05:15 -7.35226 112.61283 3164 ft 212 kts 95°
2026-05-07 05:15 -7.35402 112.62750 2869 ft 210 kts 99°
2026-05-07 05:16 -7.35654 112.64181 2603 ft 205 kts 99°
2026-05-07 05:16 -7.35869 112.65563 2336 ft 194 kts 99°
2026-05-07 05:16 -7.36074 112.66839 2076 ft 179 kts 98°
2026-05-07 05:16 -7.36269 112.68050 1851 ft 168 kts 98°
2026-05-07 05:17 -7.36447 112.69173 1638 ft 156 kts 99°
2026-05-07 05:17 -7.36616 112.70206 1430 ft 143 kts 98°
2026-05-07 05:17 -7.36767 112.71171 1258 ft 145 kts 98°
2026-05-07 05:17 -7.36933 112.72164 1056 ft 138 kts 98°
2026-05-07 05:18 -7.37091 112.73155 850 ft 143 kts 98°
2026-05-07 05:18 -7.37249 112.74128 682 ft 143 kts 98°
2026-05-07 05:18 -7.37406 112.75104 485 ft 139 kts 98°
2026-05-07 05:18 -7.37565 112.76102 294 ft 145 kts 98°
2026-05-07 05:19 -7.37728 112.77061 72 ft 137 kts 99°
2026-05-07 05:19 -7.37885 112.78058 19 ft 143 kts 97°
2026-05-07 05:19 -7.37996 112.78829 15 ft 68 kts 99°
2026-05-07 05:19 -7.38040 112.79072 17 ft 23 kts 101°
2026-05-07 05:20 -7.38046 112.79218 17 ft 21 kts 79°
2026-05-07 05:20 -7.38011 112.79330 15 ft 14 kts 71°
2026-05-07 05:20 -7.37992 112.79385 15 ft 0 kts 68°
2026-05-07 05:20 -7.37986 112.79392 15 ft 2 kts 55°
2026-05-07 05:21 -7.37969 112.79401 15 ft 3 kts 27°
2026-05-07 05:21 -7.37900 112.79417 15 ft 7 kts 10°
2026-05-07 05:21 -7.37846 112.79427 15 ft 9 kts 10°
2026-05-07 05:22 -7.37780 112.79438 15 ft 10 kts
2026-05-07 05:22 -7.37749 112.79443 15 ft 3 kts
2026-05-07 05:22 -7.37720 112.79447 16 ft 5 kts
2026-05-07 05:22 -7.37689 112.79468 15 ft 5 kts 55°
2026-05-07 05:23 -7.37689 112.79508 15 ft 6 kts 94°
2026-05-07 05:23 -7.37695 112.79556 15 ft 8 kts 98°
2026-05-07 05:23 -7.37704 112.79617 15 ft 9 kts 99°
2026-05-07 05:23 -7.37716 112.79687 15 ft 11 kts 99°
2026-05-07 05:24 -7.37721 112.79732 15 ft 2 kts 87°
2026-05-07 05:24 -7.37708 112.79742 15 ft 2 kts 44°
2026-05-07 05:24 -7.37688 112.79751 15 ft 4 kts 22°
2026-05-07 05:24 -7.37658 112.79759 15 ft 3 kts 12°
2026-05-07 05:25 -7.37640 112.79762 15 ft 0 kts 10°
2026-05-07 05:25 -7.37639 112.79762 15 ft 0 kts 10°